• In Belarus
  • List of Countries
  • For 7 days
  • Water Temperature
  • Satellite Maps
  • Weather Map
  • Weather Widgets
  • user-avatar
    Login

    Hourly Weather Bialystok

    Today, 20 August, Monday

    Time Temperature Precipitation Wind Pressure Humidity
    00:00 +21°C° 0 mm 1 mps 750 mmHg 77%
    01:00 +20°C° 0 mm 1 mps 750 mmHg 78%
    02:00 +19°C° 0 mm 2 mps 750 mmHg 80%
    03:00 +19°C° 0 mm 2 mps 750 mmHg 81%
    04:00 +18°C° 0 mm 2 mps 749 mmHg 82%
    05:00 +18°C° 0 mm 2 mps 749 mmHg 84%
    06:00 +19°C° 0 mm 2 mps 749 mmHg 79%
    07:00 +21°C° 0 mm 2 mps 749 mmHg 75%
    08:00 +23°C° 0 mm 2 mps 749 mmHg 71%
    09:00 +25°C° 0 mm 3 mps 748 mmHg 64%
    10:00 +27°C° 0 mm 3 mps 748 mmHg 57%
    11:00 +29°C° 0 mm 3 mps 748 mmHg 51%
    12:00 +29°C° 0 mm 4 mps 748 mmHg 48%
    13:00 +30°C° 0 mm 4 mps 747 mmHg 45%
    14:00 +32°C° 0 mm 4 mps 747 mmHg 42%
    15:00 +30°C° 0 mm 4 mps 747 mmHg 45%
    16:00 +30°C° 0 mm 4 mps 746 mmHg 49%
    17:00 +30°C° 0 mm 4 mps 746 mmHg 52%
    18:00 +28°C° 0 mm 4 mps 746 mmHg 55%
    19:00 +27°C° 0 mm 4 mps 746 mmHg 59%
    20:00 +25°C° 0 mm 4 mps 746 mmHg 62%
    21:00 +23°C° 0 mm 4 mps 746 mmHg 69%
    22:00 +21°C° 0 mm 3 mps 746 mmHg 76%
    23:00 +20°C° 0 mm 3 mps 746 mmHg 82%

    Tomorrow, 21 August, Tuesday

    Time Temperature Precipitation Wind Pressure Humidity
    00:00 +19°C° 0 mm 3 mps 747 mmHg 84%
    01:00 +19°C° 0 mm 3 mps 747 mmHg 86%
    02:00 +18°C° 0 mm 3 mps 747 mmHg 88%
    03:00 +18°C° 0 mm 3 mps 747 mmHg 89%
    04:00 +17°C° 0 mm 3 mps 747 mmHg 91%
    05:00 +15°C° 0 mm 4 mps 747 mmHg 92%
    06:00 +17°C° 0 mm 4 mps 748 mmHg 85%
    07:00 +16°C° 0 mm 5 mps 748 mmHg 79%
    08:00 +17°C° 0 mm 5 mps 748 mmHg 72%
    09:00 +19°C° 0 mm 5 mps 749 mmHg 68%
    10:00 +20°C° 0 mm 5 mps 749 mmHg 64%
    11:00 +21°C° 0 mm 5 mps 749 mmHg 59%
    12:00 +22°C° 0.1 mm 5 mps 749 mmHg 58%
    13:00 +23°C° 0.1 mm 4 mps 750 mmHg 56%
    14:00 +23°C° 0.1 mm 4 mps 750 mmHg 55%
    15:00 +23°C° 0.1 mm 4 mps 750 mmHg 57%
    16:00 +22°C° 0.1 mm 4 mps 750 mmHg 59%
    17:00 +22°C° 0.1 mm 4 mps 750 mmHg 61%
    18:00 +20°C° 0 mm 3 mps 750 mmHg 66%
    19:00 +19°C° 0 mm 3 mps 751 mmHg 71%
    20:00 +17°C° 0 mm 2 mps 751 mmHg 76%
    21:00 +16°C° 0 mm 2 mps 752 mmHg 78%
    22:00 +15°C° 0 mm 2 mps 752 mmHg 81%
    23:00 +14°C° 0 mm 2 mps 752 mmHg 83%

    Day after tomorrow, 22 August, Wednesday

    Time Temperature Precipitation Wind Pressure Humidity
    00:00 +14°C° 0 mm 2 mps 753 mmHg 84%
    01:00 +13°C° 0 mm 2 mps 753 mmHg 86%
    02:00 +12°C° 0 mm 2 mps 753 mmHg 87%
    03:00 +12°C° 0 mm 2 mps 753 mmHg 88%
    04:00 +12°C° 0 mm 2 mps 753 mmHg 89%
    05:00 +10°C° 0 mm 2 mps 754 mmHg 91%
    06:00 +13°C° 0 mm 2 mps 754 mmHg 84%
    07:00 +14°C° 0 mm 2 mps 754 mmHg 78%
    08:00 +16°C° 0 mm 2 mps 754 mmHg 72%
    09:00 +18°C° 0 mm 1 mps 754 mmHg 65%
    10:00 +20°C° 0 mm 1 mps 754 mmHg 59%
    11:00 +22°C° 0 mm 1 mps 754 mmHg 52%
    12:00 +23°C° 0 mm 1 mps 754 mmHg 49%
    13:00 +24°C° 0 mm 1 mps 754 mmHg 45%
    14:00 +25°C° 0 mm 1 mps 753 mmHg 42%
    15:00 +25°C° 0 mm 1 mps 753 mmHg 42%
    16:00 +25°C° 0 mm 1 mps 753 mmHg 42%
    17:00 +25°C° 0 mm 1 mps 753 mmHg 42%
    18:00 +23°C° 0 mm 1 mps 753 mmHg 49%
    19:00 +20°C° 0 mm 2 mps 752 mmHg 56%
    20:00 +18°C° 0 mm 2 mps 752 mmHg 63%
    21:00 +17°C° 0 mm 3 mps 752 mmHg 67%
    22:00 +16°C° 0 mm 3 mps 753 mmHg 71%
    23:00 +16°C° 0 mm 3 mps 753 mmHg 74%

    23 August, Thursday

    Time Temperature Precipitation Wind Pressure Humidity
    00:00 +14°C° 0 mm 3 mps 753 mmHg 76%
    01:00 +14°C° 0 mm 3 mps 752 mmHg 77%
    02:00 +14°C° 0 mm 3 mps 752 mmHg 78%
    03:00 +13°C° 0 mm 3 mps 752 mmHg 78%
    04:00 +13°C° 0 mm 3 mps 752 mmHg 77%
    05:00 +13°C° 0 mm 3 mps 752 mmHg 77%
    06:00 +14°C° 0 mm 3 mps 751 mmHg 74%
    07:00 +17°C° 0 mm 3 mps 751 mmHg 71%
    08:00 +18°C° 0 mm 3 mps 751 mmHg 68%
    09:00 +20°C° 0 mm 4 mps 751 mmHg 63%
    10:00 +22°C° 0 mm 4 mps 751 mmHg 59%
    11:00 +25°C° 0 mm 4 mps 751 mmHg 54%
    12:00 +26°C° 0 mm 4 mps 750 mmHg 53%
    13:00 +26°C° 0 mm 4 mps 750 mmHg 51%
    14:00 +27°C° 0 mm 4 mps 749 mmHg 49%
    15:00 +27°C° 0 mm 3 mps 749 mmHg 51%
    16:00 +27°C° 0 mm 3 mps 749 mmHg 53%
    17:00 +26°C° 0 mm 3 mps 748 mmHg 55%
    18:00 +25°C° 0 mm 3 mps 748 mmHg 60%
    19:00 +24°C° 0 mm 3 mps 748 mmHg 65%
    20:00 +21°C° 0 mm 3 mps 748 mmHg 70%
    21:00 +20°C° 0 mm 3 mps 748 mmHg 74%
    22:00 +20°C° 0 mm 3 mps 748 mmHg 79%
    23:00 +19°C° 0 mm 3 mps 748 mmHg 83%

    24 August, Friday

    Time Temperature Precipitation Wind Pressure Humidity
    00:00 +19°C° 0 mm 3 mps 747 mmHg 84%
    01:00 +18°C° 0 mm 3 mps 747 mmHg 86%
    02:00 +18°C° 0 mm 3 mps 747 mmHg 88%
    03:00 +17°C° 0 mm 3 mps 746 mmHg 89%
    04:00 +17°C° 0 mm 4 mps 746 mmHg 90%
    05:00 +17°C° 0 mm 4 mps 746 mmHg 91%
    06:00 +18°C° 0.1 mm 4 mps 746 mmHg 86%
    07:00 +19°C° 0.1 mm 5 mps 746 mmHg 82%
    08:00 +21°C° 0.1 mm 5 mps 745 mmHg 77%
    09:00 +23°C° 0 mm 5 mps 745 mmHg 70%
    10:00 +26°C° 0 mm 6 mps 745 mmHg 62%
    11:00 +28°C° 0 mm 6 mps 745 mmHg 55%
    12:00 +29°C° 0 mm 6 mps 745 mmHg 52%
    13:00 +30°C° 0 mm 6 mps 744 mmHg 48%
    14:00 +32°C° 0 mm 6 mps 744 mmHg 45%
    15:00 +32°C° 0 mm 5 mps 744 mmHg 46%
    16:00 +32°C° 0 mm 5 mps 744 mmHg 48%
    17:00 +30°C° 0 mm 5 mps 743 mmHg 49%
    18:00 +28°C° 0.5 mm 5 mps 743 mmHg 57%
    19:00 +26°C° 0.5 mm 5 mps 743 mmHg 64%
    20:00 +23°C° 0.5 mm 4 mps 743 mmHg 72%
    21:00 +23°C° 0.3 mm 4 mps 743 mmHg 76%
    22:00 +22°C° 0.3 mm 4 mps 743 mmHg 79%
    23:00 +21°C° 0.3 mm 4 mps 743 mmHg 83%

    25 August, Saturday

    Time Temperature Precipitation Wind Pressure Humidity
    00:00 +21°C° 1 mm 4 mps 743 mmHg 86%
    01:00 +20°C° 1 mm 3 mps 743 mmHg 90%
    02:00 +20°C° 1 mm 3 mps 743 mmHg 93%
    03:00 +19°C° 0.1 mm 2 mps 743 mmHg 94%
    04:00 +19°C° 0.1 mm 2 mps 743 mmHg 95%
    05:00 +19°C° 0.1 mm 2 mps 743 mmHg 96%
    06:00 +19°C° 0.6 mm 2 mps 744 mmHg 93%
    07:00 +19°C° 0.6 mm 2 mps 744 mmHg 91%
    08:00 +20°C° 0.6 mm 3 mps 744 mmHg 89%
    09:00 +20°C° 0.5 mm 3 mps 744 mmHg 87%
    10:00 +21°C° 0.5 mm 3 mps 744 mmHg 85%
    11:00 +21°C° 0.5 mm 3 mps 744 mmHg 83%
    12:00 +22°C° 0.2 mm 3 mps 744 mmHg 81%
    13:00 +22°C° 0.2 mm 3 mps 744 mmHg 79%
    14:00 +24°C° 0.2 mm 3 mps 744 mmHg 78%
    15:00 +24°C° 1.2 mm 3 mps 743 mmHg 79%
    16:00 +24°C° 1.2 mm 3 mps 743 mmHg 81%
    17:00 +24°C° 1.2 mm 3 mps 743 mmHg 83%
    18:00 +22°C° 1.2 mm 3 mps 743 mmHg 85%
    19:00 +21°C° 1.2 mm 3 mps 743 mmHg 88%
    20:00 +20°C° 1.2 mm 3 mps 743 mmHg 90%
    21:00 +19°C° 0.3 mm 3 mps 743 mmHg 91%
    22:00 +19°C° 0.3 mm 3 mps 743 mmHg 92%
    23:00 +18°C° 0.3 mm 3 mps 743 mmHg 93%
    Show more